Arden, NC

2:46 PM EST on February 26, 2017 (GMT -0500)
Asheville Regional

Weather History for KAVL - October, 2008

Change the Weather History Date:

Friday, October 24, 2008

  Actual Average Record
Temperature  
Mean Temperature 48 °F 54 °F  
Max Temperature 51 °F 66 °F 85 °F (1939)
Min Temperature 44 °F 42 °F 22 °F (1904)
Degree Days  
Heating Degree Days 17 11  
Month to date heating degree days 198 191  
Since 1 July heating degree days 234 248  
Cooling Degree Days 0 0  
Month to date cooling degree days 2 7  
Year to date cooling degree days 875 859  
Moisture  
Dew Point 46 °F    
Average Humidity 80    
Maximum Humidity 100    
Minimum Humidity 60    
Precipitation  
Precipitation 0.94 in 0.09 in 2.56 in (1918)
Month to date precipitation 1.72 2.27  
Year to date precipitation 29.16 37.69  
Snow  
Snow 0.00 in 0.00 in 0.50 in (1923)
Month to date snowfall 0.0 0.0  
Since 1 July snowfall 0.0 0.0  
Since 1 September snowfall 0.0 0.0  
Snow Depth -    
Sea Level Pressure  
Sea Level Pressure 30.17 in    
Wind  
Wind Speed 5 mph (South)    
Max Wind Speed 12 mph    
Max Gust Speed 16 mph    
Visibility 5 miles    
Events Rain    
T = Trace of Precipitation, MM = Missing Value Source: NWS Daily Summary

Daily Weather History Graph

Daily Weather History Graph

Search for Another Location

Airport or City:

Trip Planner

Search our weather history database for the weather conditions in past years. The results will help you decide how hot, cold, wet, or windy it might be!

Date:

Astronomy

Oct. 24, 2008 Rise Set
Actual Time 7:44 AM EDT 6:43 PM EDT
Civil Twilight 7:18 AM EDT 7:09 PM EDT
Nautical Twilight 6:49 AM EDT 7:38 PM EDT
Astronomical Twilight 6:19 AM EDT 8:08 PM EDT
Moon 3:26 AM EDT (10/24) 4:23 PM EDT (10/24)
Length of Visible Light 11h 50m
Length of Day
10h 58m
Waning Crescent, 18% of the Moon is Illuminated
Oct 24
Waning Crescent
Oct 28
New
Nov 5
First Quarter
Nov 13
Full
Nov 19
Last Quarter

Hourly Weather History & Observations

Time (EDT) Temp. Windchill Dew Point Humidity Pressure Visibility Wind Dir Wind Speed Gust Speed Precip Events Conditions
12:54 AM 46.0 °F 41.9 °F 33.1 °F 61% 30.43 in 10.0 mi SE 8.1 mph - N/A   Clear
1:54 AM 46.0 °F 44.8 °F 34.0 °F 63% 30.42 in 10.0 mi SE 3.5 mph - N/A   Overcast
2:54 AM 46.0 °F 43.9 °F 36.0 °F 68% 30.38 in 10.0 mi South 4.6 mph - N/A   Mostly Cloudy
3:54 AM 46.0 °F 41.9 °F 37.0 °F 71% 30.37 in 10.0 mi South 8.1 mph - N/A   Overcast
4:17 AM 46.4 °F 42.4 °F 37.4 °F 71% 30.37 in 10.0 mi SSE 8.1 mph - N/A   Overcast
4:54 AM 46.0 °F 43.1 °F 37.9 °F 73% 30.35 in 10.0 mi SSE 5.8 mph - N/A   Overcast
5:54 AM 46.0 °F 43.1 °F 39.0 °F 76% 30.34 in 10.0 mi SSE 5.8 mph - N/A   Overcast
6:54 AM 45.0 °F - 42.1 °F 90% 30.32 in 9.0 mi Calm Calm - 0.03 in Rain Light Rain
7:54 AM 45.0 °F 40.6 °F 42.1 °F 90% 30.31 in 10.0 mi SSE 8.1 mph - 0.02 in Rain Light Rain
8:07 AM 44.6 °F 40.2 °F 42.8 °F 93% 30.32 in 10.0 mi South 8.1 mph - 0.00 in Rain Light Rain
8:15 AM 44.6 °F 40.7 °F 42.8 °F 93% 30.32 in 10.0 mi South 6.9 mph - 0.00 in Rain Light Rain
8:54 AM 45.0 °F 41.2 °F 43.0 °F 93% 30.34 in 10.0 mi South 6.9 mph - 0.01 in   Overcast
9:01 AM 44.6 °F 40.2 °F 42.8 °F 93% 30.34 in 10.0 mi South 8.1 mph - N/A   Overcast
9:54 AM 45.0 °F 41.8 °F 43.0 °F 93% 30.31 in 10.0 mi South 5.8 mph - N/A   Overcast
10:44 AM 44.6 °F 42.2 °F 44.6 °F 100% 30.29 in 6.0 mi South 4.6 mph - 0.00 in   Overcast
10:54 AM 45.0 °F 41.8 °F 44.1 °F 97% 30.28 in 7.0 mi South 5.8 mph - 0.00 in   Overcast
11:21 AM 44.6 °F 40.7 °F 44.6 °F 100% 30.28 in 7.0 mi SSW 6.9 mph - 0.00 in Rain Light Rain
11:54 AM 46.0 °F 42.5 °F 45.0 °F 96% 30.25 in 6.0 mi SSW 6.9 mph - 0.01 in Rain Light Rain
12:51 PM 46.4 °F 42.9 °F 46.4 °F 100% 30.21 in 2.5 mi South 6.9 mph - 0.02 in Rain Light Rain
12:54 PM 46.9 °F - 46.0 °F 97% 30.20 in 2.5 mi South 6.9 mph - 0.02 in Rain Light Rain
1:20 PM 46.4 °F 42.4 °F 46.4 °F 100% 30.19 in 3.0 mi South 8.1 mph - 0.02 in Rain Light Rain
1:28 PM 46.4 °F 42.9 °F 46.4 °F 100% 30.19 in 2.0 mi SSW 6.9 mph - 0.03 in Rain Rain
1:35 PM 46.4 °F 44.3 °F 46.4 °F 100% 30.18 in 1.8 mi SSW 4.6 mph - 0.05 in Rain Light Rain
1:42 PM 46.4 °F 42.4 °F 46.4 °F 100% 30.18 in 3.0 mi South 8.1 mph - 0.05 in Rain Light Rain
1:54 PM 46.9 °F - 46.9 °F 100% 30.17 in 3.0 mi South 8.1 mph - 0.06 in Rain Light Rain
2:12 PM 48.2 °F - 46.4 °F 93% 30.16 in 4.0 mi SSE 6.9 mph - 0.01 in Rain Light Rain
2:52 PM 48.2 °F - 48.2 °F 100% 30.13 in 2.5 mi South 5.8 mph - 0.03 in Rain Light Rain
2:54 PM 48.9 °F - 48.0 °F 97% 30.12 in 2.5 mi South 5.8 mph - 0.03 in Rain Light Rain
3:44 PM 48.2 °F - 48.2 °F 100% 30.11 in 1.8 mi South 9.2 mph - 0.06 in Rain Rain
3:54 PM 48.9 °F - 48.0 °F 97% 30.09 in 1.8 mi South 9.2 mph - 0.08 in Rain Rain
4:21 PM 48.2 °F - 48.2 °F 100% 30.09 in 2.0 mi South 10.4 mph - 0.06 in Rain Rain
4:40 PM 48.2 °F - 48.2 °F 100% 30.09 in 3.0 mi SSW 5.8 mph - 0.09 in Rain Light Rain
4:54 PM 48.9 °F - 48.0 °F 97% 30.07 in 3.0 mi SSW 4.6 mph - 0.10 in Rain Light Rain
5:09 PM 48.2 °F - 48.2 °F 100% 30.08 in 2.0 mi SSW 6.9 mph - 0.02 in Rain Rain
5:16 PM 48.2 °F - 48.2 °F 100% 30.08 in 1.8 mi SW 5.8 mph - 0.03 in Rain Rain
5:36 PM 48.2 °F - 48.2 °F 100% 30.08 in 1.2 mi Calm Calm - 0.09 in Rain Rain
5:54 PM 48.0 °F - 48.0 °F 100% 30.08 in 1.0 mi Calm Calm - 0.14 in Rain Heavy Rain
6:11 PM 48.2 °F - 48.2 °F 100% 30.09 in 1.0 mi Calm Calm - 0.07 in Rain Heavy Rain
6:35 PM 48.2 °F - 48.2 °F 100% 30.08 in 2.0 mi SSW 3.5 mph - 0.12 in Rain Light Rain
6:44 PM 48.2 °F - 48.2 °F 100% 30.07 in 2.5 mi SSW 4.6 mph - 0.14 in Rain Rain
6:54 PM 48.9 °F - 48.0 °F 97% 30.07 in 2.5 mi SW 5.8 mph - 0.15 in Rain Light Rain
7:06 PM 48.2 °F - 48.2 °F 100% 30.08 in 2.0 mi SSW 4.6 mph - 0.01 in Rain Light Rain
7:33 PM 48.2 °F - 48.2 °F 100% 30.07 in 2.0 mi Calm Calm - 0.04 in Rain Rain
7:54 PM 48.9 °F - 48.9 °F 100% 30.06 in 2.5 mi Calm Calm - 0.08 in Rain Light Rain
8:06 PM 48.2 °F - 48.2 °F 100% 30.06 in 2.0 mi Calm Calm - 0.03 in Rain Rain
8:18 PM 48.2 °F - 48.2 °F 100% 30.06 in 3.0 mi Calm Calm - 0.05 in Rain Light Rain
8:28 PM 48.2 °F - 48.2 °F 100% 30.06 in 2.5 mi SSW 4.6 mph - 0.06 in Rain Light Rain
8:35 PM 48.2 °F - 48.2 °F 100% 30.06 in 3.0 mi SSW 4.6 mph - 0.07 in Rain Light Rain
8:54 PM 50.0 °F - 48.9 °F 96% 30.05 in 2.0 mi South 4.6 mph - 0.08 in Rain Light Rain
9:01 PM 50.0 °F - 48.2 °F 94% 30.06 in 3.0 mi South 5.8 mph - 0.00 in Rain Light Rain
9:20 PM 50.0 °F - 48.2 °F 94% 30.06 in 2.0 mi SSW 4.6 mph - 0.02 in Rain Light Rain
9:29 PM 50.0 °F - 48.2 °F 94% 30.06 in 2.0 mi South 4.6 mph - 0.02 in Rain Light Rain
9:54 PM 50.0 °F - 48.9 °F 96% 30.04 in 2.0 mi SSW 4.6 mph - 0.04 in Rain Light Rain
10:01 PM 50.0 °F - 48.2 °F 94% 30.06 in 4.0 mi SSW 4.6 mph - 0.00 in Rain Light Rain
10:54 PM 50.0 °F - 50.0 °F 100% 30.03 in 7.0 mi Calm Calm - 0.03 in Rain Light Rain
11:54 PM 50.0 °F - 50.0 °F 100% 30.02 in 4.0 mi Calm Calm - 0.02 in Rain Light Rain